Location: Gleizolles
(44.4833°N, 6.7667°E)
Time: 12:18:55
(UTC+00:00)

Envisat - Pass Details

Date: 12 December 2021
Orbit: 764 x 766 km, 98.2° (Epoch: 28 January)

Event Time Altitude Azimuth Distance (km) Brightness Sun altitude
Rises 03:54:23 0° 21° (NNE) 3,243 6.5 -32.1°
Reaches altitude 10° 03:56:53 10° 30° (NNE) 2,312 5.8 -31.7°
Maximum altitude 04:01:33 36° 96° (E) 1,205 4.4 -30.8°
Drops below altitude 10° 04:06:11 10° 163° (SSE) 2,295 5.7 -30.0°
Sets 04:08:39 0° 172° (S) 3,216 6.4 -29.6°
